Terminal Aerodrome Forecast
Issued by NWS Charleston, WV

Current Version | Previous Version | Text Only | Print | Product List | Glossary Off
Versions: 1 2 3 4 5 6 7 8 9 10 11 12 13 14 15 16 17 18 19 20 21 22 23 24 25 26

000
FTUS41 KRLX 190200 AAA
TAFHTS
TAF AMD
KHTS 190241Z 1903/1924 VRB03KT P6SM SKC
     FM190800 VRB03KT 4SM BR FEW001
     FM191300 VRB03KT 5SM BR SCT010
     FM191400 VRB03KT P6SM SKC
     FM191800 11004KT P6SM FEW040=

USA.gov is the U.S. government's official web portal to all federal, state and local government web resources and services.